Feather Falls, CA

8:02 PM PST on February 12, 2016 (GMT -0800)
Oroville Municipal

Weather History for KOVE - January, 2014

Change the Weather History Date:

Saturday, January 4, 2014

  Actual Average Record
Temperature  
Mean Temperature 52 °F -  
Max Temperature 66 °F 52 °F 66 °F (2014)
Min Temperature 37 °F 34 °F 27 °F (1970)
Degree Days  
Heating Degree Days 14    
Growing Degree Days 2 (Base 50)    
Moisture  
Dew Point 26 °F    
Average Humidity 48    
Maximum Humidity 89    
Minimum Humidity 13    
Precipitation  
Precipitation 0.00 in - - ()
Sea Level Pressure  
Sea Level Pressure 30.06 in    
Wind  
Wind Speed 5 mph (NNW)    
Max Wind Speed 15 mph    
Max Gust Speed 26 mph    
Visibility 10 miles    
Events      
Averages and records for this station are not official NWS values.
T = Trace of Precipitation, MM = Missing Value Source: NWS Daily Summary

Daily Weather History Graph

Daily Weather History Graph

Search for Another Location

Airport or City:

Trip Planner

Search our weather history database for the weather conditions in past years. The results will help you decide how hot, cold, wet, or windy it might be!

Date:

Astronomy

Jan. 04, 2014 Rise Set
Actual Time 7:27 AM PST 4:56 PM PST
Civil Twilight 6:57 AM PST 5:26 PM PST
Nautical Twilight 6:23 AM PST 5:59 PM PST
Astronomical Twilight 5:50 AM PST 6:32 PM PST
Moon 9:37 AM PST (1/4) 9:20 PM PST (1/4)
Length of Visible Light 10h 29m
Length of Day
9h 29m
Waxing Crescent, 16% of the Moon is Illuminated
Jan 4
Waxing Crescent
Jan 7
First Quarter
Jan 15
Full
Jan 23
Last Quarter
Jan 30
New

Hourly Weather History & Observations

Time (PST) Temp. Windchill Dew Point Humidity Pressure Visibility Wind Dir Wind Speed Gust Speed Precip Events Conditions
12:53 AM 43.0 °F - 37.0 °F 80% 30.01 in 10.0 mi Calm Calm - N/A   Clear
1:53 AM 42.1 °F 40.2 °F 37.0 °F 82% 30.02 in 10.0 mi ENE 3.5 mph - N/A   Clear
2:53 AM 43.0 °F - 37.0 °F 80% 30.03 in 10.0 mi Calm Calm - N/A   Clear
3:53 AM 39.0 °F - 35.1 °F 86% 30.02 in 10.0 mi Calm Calm - N/A   Clear
4:53 AM 41.0 °F - 36.0 °F 82% 30.02 in 10.0 mi Calm Calm - N/A   Clear
5:53 AM 37.0 °F - 34.0 °F 89% 30.05 in 10.0 mi Calm Calm - N/A   Clear
6:53 AM 39.0 °F 36.8 °F 35.1 °F 86% 30.06 in 10.0 mi NNW 3.5 mph - N/A   Clear
7:53 AM 37.0 °F - 34.0 °F 89% 30.07 in 10.0 mi Calm Calm - N/A   Clear
8:53 AM 39.9 °F 36.7 °F 35.1 °F 83% 30.09 in 8.0 mi WNW 4.6 mph - N/A   Clear
9:53 AM 46.9 °F - 37.0 °F 68% 30.10 in 10.0 mi WNW 6.9 mph - N/A   Clear
10:53 AM 54.0 °F - 36.0 °F 51% 30.09 in 10.0 mi WNW 10.4 mph - N/A   Clear
11:53 AM 57.9 °F - 33.1 °F 39% 30.06 in 10.0 mi NW 15.0 mph 26.5 mph N/A   Clear
12:53 PM 64.0 °F - 21.9 °F 20% 30.04 in 10.0 mi NW 15.0 mph 26.5 mph N/A   Clear
1:53 PM 66.0 °F - 23.0 °F 20% 30.02 in 10.0 mi NNW 13.8 mph 24.2 mph N/A   Clear
2:53 PM 66.9 °F - 21.9 °F 18% 30.02 in 10.0 mi NW 13.8 mph 25.3 mph N/A   Clear
3:53 PM 66.0 °F - 21.0 °F 18% 30.04 in 10.0 mi NW 12.7 mph 21.9 mph N/A   Clear
4:53 PM 64.0 °F - 14.0 °F 14% 30.04 in 10.0 mi NNW 10.4 mph 20.7 mph N/A   Clear
5:53 PM 57.9 °F - 16.0 °F 19% 30.06 in 10.0 mi NNW 6.9 mph - N/A   Clear
6:53 PM 54.0 °F - 17.1 °F 23% 30.08 in 10.0 mi NW 6.9 mph - N/A   Clear
7:53 PM 55.9 °F - 12.0 °F 18% 30.10 in 10.0 mi NNW 6.9 mph - N/A   Clear
8:53 PM 55.0 °F - 14.0 °F 20% 30.10 in 10.0 mi NNW 9.2 mph - N/A   Clear
9:53 PM 57.9 °F - 6.1 °F 13% 30.11 in 10.0 mi North 11.5 mph 21.9 mph N/A   Clear
10:53 PM 52.0 °F - 12.9 °F 21% 30.12 in 10.0 mi NNW 8.1 mph 18.4 mph N/A   Clear
11:53 PM 48.0 °F - 16.0 °F 28% 30.12 in 10.0 mi NW 11.5 mph - N/A   Clear